Theta_e
295 294 294 294 294 294 293 294 295 296 297 298 298 298 297 296 294 294 294 294 295 295
294 294 292 293 293 292 293 293 292 293 293 293 293 293 292 291 290 290 290 291 292 292
293 293 292 292 291 291 291 291 291 291 291 290 290 290 290 289 289 288 288 289 289 290
295 295 294 292 290 290 290 290 289 289 289 288 288 288 288 288 289 288 288 288 288 287
293 293 292 291 291 288 288 289 288 287 287 287 287 288 288 287 287 286 285 286 285 285
291 290 290 290 290 290 290 289 290 289 288 288 288 287 287 286 286 285 285 285 285 285
289 289 289 289 289 289 289 288 287 287 287 287 286 286 286 285 284 284 284 284 284 284
288 289 288 288 288 287 287 287 287 286 286 286 286 285 285 285 285 284 284 284 283 283
288 288 288 287 287 286 286 286 287 286 286 285 285 285 287 286 284 284 283 282 283 284
288 287 287 287 286 286 285 285 285 285 285 285 285 286 286 286 284 283 283 282 282 281
288 287 286 286 285 285 285 285 284 284 285 284 284 285 284 285 283 282 282 282 281 281
288 286 286 285 285 285 285 285 284 284 284 284 283 284 284 283 281 280 280 280 281 280
288 287 286 286 285 285 286 284 283 283 284 284 283 284 283 282 281 279 279 280 280 281
287 286 287 286 285 285 284 283 283 282 283 283 284 283 284 283 281 281 280 280 279 281
Wind_Speed
12 9 9 10 8 7 7 8 10 9 11 11 12 10 9 9 7 9 7 8 5 5
10 9 8 9 8 6 8 8 9 10 12 11 12 11 11 8 9 9 7 7 6 5
10 10 9 8 10 10 8 9 9 11 11 12 12 11 11 9 8 9 7 5 7 7
10 10 10 11 9 9 9 10 10 11 11 11 11 10 10 10 9 10 10 8 9 10
11 11 11 11 9 9 10 10 10 9 11 10 9 7 9 11 9 10 10 9 9 9
10 10 11 10 10 10 9 9 10 10 10 10 9 10 9 9 10 10 10 9 10 8
9 9 8 9 9 9 9 10 10 10 9 8 10 9 8 9 10 11 10 10 10 9
10 9 7 8 9 8 8 9 9 9 9 8 7 6 8 8 9 10 11 10 10 10
8 9 9 7 7 8 7 7 7 9 8 7 6 7 11 9 8 9 9 10 9 9
7 7 8 8 7 6 7 7 7 7 8 9 8 9 10 9 7 8 8 7 7 7
7 7 8 8 8 6 6 6 6 7 6 8 8 12 8 9 6 7 7 6 6 7
7 8 7 8 9 8 6 5 6 5 7 7 6 9 10 8 6 6 6 5 5 5
8 9 8 8 8 6 7 6 4 4 5 7 8 10 6 4 4 7 5 4 4 3
8 7 7 7 7 7 8 7 6 5 5 3 5 6 7 5 2 2 4 4 4 3
Wind_Direction
39 38 36 42 48 49 54 43 26 43 57 58 66 72 78 74 69 71 71 78 58 82
48 54 54 57 56 54 55 64 53 54 62 59 65 68 71 74 76 73 70 69 71 79
59 56 57 55 56 63 66 73 72 70 70 69 70 75 80 85 85 92 83 78 77 65
66 64 65 63 58 59 62 71 74 80 83 82 82 86 91 85 84 83 83 76 78 75
70 74 73 76 76 68 71 69 72 74 81 82 79 78 82 92 87 84 83 80 77 75
80 77 76 75 72 74 74 73 78 84 86 86 82 85 83 84 88 90 87 83 83 81
87 80 79 79 74 72 74 79 72 71 77 81 91 90 93 96 96 86 77 70 67 67
109 99 88 88 89 85 86 91 93 85 74 73 77 91 96 94 94 92 89 78 76 71
120 117 110 94 92 92 84 83 84 91 86 73 77 82 99 102 101 99 98 99 96 90
140 129 117 117 113 105 101 100 99 97 99 95 89 80 71 87 97 100 99 98 97 88
153 143 136 131 119 108 110 109 109 96 94 103 105 107 92 74 83 91 95 96 102 110
165 153 158 138 137 129 122 113 107 106 105 104 101 124 118 110 96 96 92 94 101 117
169 163 168 154 141 134 125 115 123 113 116 131 139 148 132 118 124 128 126 115 119 109
170 168 164 152 143 149 135 132 132 134 120 131 135 151 156 146 119 130 151 160 154 154